Regional Weather Roundup
Issued by NWS Sterling, VA

Home | Current Version | Previous Version | Graphics & Text | Print | Product List | Glossary On
Versions: 1 2 3 4 5 6 7 8 9 10 11 12 13 14 15 16 17 18 19 20 21 22 23 24 25 26 27
000
ASUS41 KLWX 311010
RWRLWX

REGIONAL WEATHER ROUNDUP
NATIONAL WEATHER SERVICE BALTIMORE MD/WASHINGTON DC
600 AM EDT FRI OCT 31 2014

Note: "FAIR" indicates few or no clouds below 12,000 feet
with no significant weather and/or obstructions to visibility.
 TC=TEMPERATURE CELSIUS

 * =Non NWS site. Station does not report precipitation (e.g. rain,
    snow, etc.), thunder, or fog.

DCZ001-MDZ009-015-VAZ040>042-051-053>054-311100-
WASHINGTON METRO

CITY           SKY/WX    TMP DP  RH WIND       PRES   REMARKS
WASHINGTON NAT MOCLDY    49  40  71 NE5       30.02S
DULLES         MOCLDY    37  35  92 CALM      30.00F
ANDREWS AFB    CLEAR     38  35  90 CALM      30.00S
FT BELVOIR     CLOUDY    40  38  92 CALM      30.01S
QUANTICO       PTCLDY    41  36  82 NW7       30.01F
COLLEGE PARK*  CLOUDY    43  41  93 CALM      30.01S
LEESBURG*      CLOUDY    37  37 100 CALM      30.01S
MANASSAS*      CLOUDY    37  36  93 CALM      30.01S
GAITHERSBURG*  PTCLDY    45  37  76 CALM      30.04S

$$

MDZ006>007-011-014-311100-
BALTIMORE METRO

CITY           SKY/WX    TMP DP  RH WIND       PRES   REMARKS
BWI AIRPORT    MOCLDY    47  41  80 CALM      30.01R
MD SCIENCE CTR   N/A     50  36  58 MISG      30.03R
MARTIN STATE   CLOUDY    48  43  81 CALM      30.04R
ANNAPOLIS      CLOUDY    50  38  63 NE3       30.01S
FORT MEADE*    CLOUDY    43  41  93 CALM      30.04R

$$

MDZ012-015-019>023-311100-
MARYLAND EASTERN SHORE

CITY           SKY/WX    TMP DP  RH WIND       PRES   REMARKS
OCEAN CITY     MOCLDY    43  39  86 N6        29.98F
SALISBURY      CLOUDY    45  37  73 N7        29.99S
BAY BRIDGE AP*   N/A     48  36  61 CALM      30.02S
CAMBRIDGE*     CLOUDY    45  39  81 N3        30.00S
EASTON*        CLOUDY    46  42  86 E6        30.04F

$$

MDZ017>025-311100-
SOUTHERN MARYLAND

CITY           SKY/WX    TMP DP  RH WIND       PRES   REMARKS
PATUXENT RIVER PTCLDY    41  38  89 CALM      30.00S
ST INIGOES     CLEAR     40  37  89 CALM      29.99F
LEONARDTOWN*   CLEAR     36  34  93 CALM      30.01F

$$

MDZ003>005-311100-
NORTH CENTRAL MARYLAND

CITY           SKY/WX    TMP DP  RH WIND       PRES   REMARKS
FREDERICK*     CLOUDY    48  43  81 CALM      30.04R
HAGERSTOWN APT CLOUDY    44  37  76 E3        29.99F
WESTMINSTER*   CLOUDY    46  37  71 SE3       30.00S

$$

MDZ501>502-311100-
WESTERN MARYLAND

CITY           SKY/WX    TMP DP  RH WIND       PRES   REMARKS
OAKLAND*       CLOUDY    36  36 100 S3        29.95S
CUMBERLAND*    CLOUDY    45  36  70 CALM      30.03F

$$

VAZ025>031-311100-
SHENANDOAH VALLEY

CITY           SKY/WX    TMP DP  RH WIND       PRES   REMARKS
WINCHESTER*    PTCLDY    39  32  75 CALM      30.00S
FRONT ROYAL*   FAIR      36  34  93 CALM      30.00S
LURAY*         FAIR      36  36 100 SW3       30.01S
NEW MARKET*    PTSUNNY   33  32  98 CALM      30.00S
STAUNTON*      MOCLDY    31  29  92 CALM      30.02S FOG
WAYNESBORO*    FAIR      30  29  94 CALM      29.99S

$$

WVZ021-048>050-054>055-311100-
EASTERN WEST VIRGINIA PANHANDLE

CITY           SKY/WX    TMP DP  RH WIND       PRES   REMARKS
MARTINSBURG    CLOUDY    44  37  76 CALM      30.00F
PETERSBURG*    CLOUDY    39  33  81 CALM      30.01S

$$

VAZ036>039-050-311100-
CENTRAL FOOTHILLS

CITY           SKY/WX    TMP DP  RH WIND       PRES   REMARKS
CHARLOTTESVILL MOCLDY    35  33  92 W5        30.00S
CULPEPER*      PTCLDY    34  34 100 CALM      30.01S FOG
ORANGE*        MOCLDY    36  34  93 CALM      30.01S
GORDONSVILLE*  FAIR      34  33  95 CALM      30.00S
WARRENTON*     FAIR      33  33 100 CALM      30.00S FOG

$$

VAZ055>057-311100-
NORTH AND CENTRAL PIEDMONT

CITY           SKY/WX    TMP DP  RH WIND       PRES   REMARKS
FREDERICKSBRG* CLEAR     39  39 100 CALM      30.00S
STAFFORD*      CLEAR     33  33 100 CALM      30.04F

$$

NCZ024-NYZ072-PAZ021-071-VAZ022-071-311100-
OTHER REGIONAL OBSERVATIONS

CITY           SKY/WX    TMP DP  RH WIND       PRES   REMARKS
NEW YORK CITY  MOCLDY    46  32  58 VRB7      30.04R
PHILADELPHIA   PTCLDY    41  33  73 NW8       30.03R
PITTSBURGH     CLOUDY    44  38  79 CALM      29.96F
ROANOKE        PTCLDY    36  33  89 CALM      30.02S
RICHMOND       CLOUDY    46  38  73 NE7       29.98F
RALEIGH        PTCLDY    44  38  79 NE6       29.96F

$$

ANZ530>537-311100-
MARINE OBSERVATIONS

STATION/POSITION TIME  TEMP    WIND        PRES
                       AIR SEA DIR/SP/G
                 (UTC) (F)     (DEG/KT/KT) (MB)
THOMAS PT LIGHT  1000   50 60   70/  8/  9 1017.2F
BALT KEY BRIDGE  1000   50      20/  5/  6 1016.3R
COVE POINT       1000   51      90/ 10/ 12 1015.8F
LEWISETTA        1000   53 60   50/  7/  9 1015.2F
SOLOMONS ISLAND  1000      62                N/A
PINEY POINT      1000           50/  5/  5   N/A

$$




USA.gov is the U.S. government's official web portal to all federal, state and local government web resources and services.